Location: Luxembourg
(49.6117°N, 6.1300°E)
Time: 06:07:33
(UTC+01:00)

N. Korean satellite - Visible Passes

Search period start: 26 February 2020 00:00
Search period end: 07 March 2020 00:00
Orbit: 456 x 505 km, 97.2° (Epoch: 25 February)

Date Brightness Start Highest point End Pass type
(mag) Time Alt. Az. Time Alt. Az. Time Alt. Az.
26 Feb 9.6 05:34:13 10° NE 05:37:00 20° E 05:39:45 10° SE visible
27 Feb 10.3 05:10:19 10° ENE 05:11:11 11° E 05:12:03 10° E visible
27 Feb 6.6 06:41:20 10° N 06:45:03 73° WNW 06:48:43 10° SSW visible
28 Feb 7.4 06:15:49 10° NNE 06:19:29 56° E 06:23:06 10° S visible
29 Feb 8.8 05:50:33 10° NNE 05:53:51 29° E 05:57:04 10° SSE visible
01 Mar 9.9 05:25:43 10° NE 05:28:04 16° E 05:30:24 10° SE visible
02 Mar 6.6 06:32:30 10° NNE 06:36:13 89° ESE 06:39:52 10° SSW visible
03 Mar 7.9 06:07:03 10° NNE 06:10:36 44° E 06:14:07 10° S visible
04 Mar 9.3 05:41:53 10° NE 05:44:55 23° E 05:47:53 10° SSE visible
05 Mar 10.0 05:17:22 10° ENE 05:19:07 13° E 05:20:50 10° ESE visible
06 Mar 7.0 06:23:38 10° NNE 06:27:20 71° ESE 06:30:56 10° S visible
